This demonstration page uses our WeatherBlox Daily Observations layout. Learn more.

Left ArrowRight Arrow

41.86663, -103.66717

Hourly Observations for December 9, 2020

Temp ( °F °C ) Dew Point ( °F °C ) Humidity (%) Winds ( mph kmh ) Pressure ( in mb ) Visibility ( mi km ) Precip ( " mm )
12:53 am 00:53 Clear 37 2.8 8 -13.3 30 30 NW 6 9 30.14 1021 10 16 0.00 0.00
1:53 am 01:53 Clear 35 1.7 9 -12.8 34 34 NW 6 9 30.13 1020 10 16 0.00 0.00
2:53 am 02:53 Clear 34 1.1 9 -12.8 35 35 NNW 8 13 30.14 1021 10 16 0.00 0.00
3:53 am 03:53 Clear 33 0.6 9 -12.8 36 36 NNW 9 15 30.14 1021 10 16 0.00 0.00
4:53 am 04:53 Clear 35 1.7 9 -12.8 34 34 NNW 8 13 30.14 1021 10 16 0.00 0.00
5:53 am 05:53 Clear 33 0.6 8 -13.3 35 35 NNW 9 15 30.16 1021 10 16 0.00 0.00
6:53 am 06:53 Clear 29 -1.7 10 -12.2 45 45 Calm 30.17 1022 10 16 0.00 0.00
7:53 am 07:53 Sunny 30 -1.1 12 -11.1 47 47 NW 3 6 30.17 1022 10 16 0.00 0.00
8:53 am 08:53 Sunny 40 4.4 11 -11.7 30 30 N 3 6 30.13 1020 10 16 0.00 0.00
9:53 am 09:53 Sunny 51 10.6 10 -12.2 19 19 Calm 30.10 1019 10 16 0.00 0.00
10:53 am 10:53 Sunny 57 13.9 9 -12.8 15 15 SE 3 6 30.04 1017 10 16 0.00 0.00
11:53 am 11:53 Sunny 61 16.1 11 -11.7 14 14 E 3 6 29.99 1016 10 16 0.00 0.00
12:53 pm 12:53 Sunny 66 18.9 11 -11.7 11 11 NNE 3 6 29.92 1013 10 16 0.00 0.00
1:53 pm 13:53 Sunny 67 19.4 13 -10.6 12 12 SE 5 7 29.90 1013 10 16 0.00 0.00
2:53 pm 14:53 Sunny 68 20 12 -11.1 11 11 NW 3 6 29.88 1012 10 16 0.00 0.00
3:53 pm 15:53 Sunny 62 16.7 13 -10.6 14 14 Calm 29.89 1012 9 14 0.00 0.00
4:53 pm 16:53 Clear 53 11.7 5 -15 14 14 W 8 13 29.91 1013 10 16 0.00 0.00
5:53 pm 17:53 Clear 46 7.8 2 -16.7 16 16 W 3 6 29.93 1014 10 16 0.00 0.00
6:53 pm 18:53 Clear 47 8.3 0 -17.8 14 14 WSW 13 20 29.94 1014 10 16 0.00 0.00
7:53 pm 19:53 Clear 43 6.1 0 -17.8 16 16 NNW 5 7 29.96 1014 10 16 0.00 0.00
8:53 pm 20:53 Clear 36 2.2 2 -16.7 23 23 NW 9 15 29.94 1014 10 16 0.00 0.00
9:53 pm 21:53 Clear 39 3.9 1 -17.2 20 20 Calm 29.90 1012 10 16 0.00 0.00
10:53 pm 22:53 Clear 37 2.8 2 -16.7 22 22 NW 8 13 29.90 1012 10 16 0.00 0.00
11:53 pm 23:53 Clear 37 2.8 3 -16.1 24 24 NW 8 13 29.91 1013 10 16 0.00 0.00

Powered by AerisWeather